Location: Almena City Lake
(39.8850°N, 99.6804°W)
Time: 08:06:22
(UTC+00:00)

Cosmos 2285 Rocket - Pass Details

Date: 18 February 2020
Orbit: 970 x 999 km, 74.0° (Epoch: 30 March)

Event Time Altitude Azimuth Distance (km) Brightness Sun altitude
Rises 01:58:00 0° 347° (NNW) 3,690 7.2 -20.1°
Reaches altitude 10° 02:00:43 10° 355° (N) 2,743 6.4 -20.6°
Maximum altitude 02:06:40 40° 64° (ENE) 1,414 4.4 -21.7°
Enters shadow 02:07:09 40° 75° (ENE) 1,427 4.4 -21.8°
